Location: Bratislava
(48.1500°N, 17.1170°E)
Time: 06:50:15
(UTC+01:00)

OTV 5 (USA 277) - Visible Passes

Search period start: 22 January 2019 00:00
Search period end: 01 February 2019 00:00
Orbit: 339 x 349 km, 54.5° (Epoch: 15 January)

Date Brightness Start Highest point End Pass type
(mag) Time Alt. Az. Time Alt. Az. Time Alt. Az.
23 Jan ? 06:46:27 10° SSE 06:47:31 12° SE 06:48:36 10° ESE visible
25 Jan ? 05:59:05 10° SSE 05:59:59 11° SE 06:00:52 10° ESE visible
26 Jan ? 06:20:44 10° SSW 06:23:19 29° SE 06:25:54 10° ENE visible
27 Jan ? 05:11:46 10° SE 05:12:26 11° SE 05:13:06 10° ESE visible
27 Jan ? 06:43:56 10° SW 06:46:51 79° SE 06:49:46 10° ENE visible
28 Jan ? 05:34:06 16° S 05:35:45 27° SE 05:38:19 10° ENE visible
29 Jan ? 05:57:37 23° SW 05:59:17 76° SSE 06:02:13 10° ENE visible
30 Jan ? 04:49:27 19° E 04:49:27 19° E 04:50:44 10° ENE visible
30 Jan ? 06:20:54 16° W 06:22:59 46° NNW 06:25:50 10° NE visible
31 Jan ? 05:12:34 41° ENE 05:12:34 41° ENE 05:14:38 10° ENE visible
31 Jan ? 06:44:15 10° WNW 06:46:51 28° NNW 06:49:27 10° NE visible
